Weather History for Holdrege, NE

Change the Weather History Date:

Friday, March 15, 2013

  Actual Average Record
Temperature  
Mean Temperature 60 °F -  
Max Temperature 80 °F 50 °F 80 °F (2013)
Min Temperature 41 °F 26 °F 1 °F (1949)
Degree Days  
Heating Degree Days 5    
Growing Degree Days 10 (Base 50)    
Moisture  
Dew Point 33 °F    
Average Humidity 45    
Maximum Humidity 69    
Minimum Humidity 13    
Precipitation  
Precipitation 0.00 in - - ()
Sea Level Pressure  
Sea Level Pressure 29.84 in    
Wind  
Wind Speed 9 mph (West)    
Max Wind Speed 18 mph    
Max Gust Speed 21 mph    
Visibility 10 miles    
Events      
Averages and records for this station are not official NWS values.
T = Trace of Precipitation, MM = Missing Value Source: NWS Daily Summary

Daily Weather History Graph

Daily Weather History Graph

Search for Another Location

Airport:

Trip Planner

Search our weather history database for the weather conditions in past years. The results will help you decide how hot, cold, wet, or windy it might be!

Date:

Astronomy

Mar. 15, 2013 Rise Set
Actual Time 7:48 AM CDT 7:44 PM CDT
Civil Twilight 7:21 AM CDT 8:11 PM CDT
Nautical Twilight 6:49 AM CDT 8:43 PM CDT
Astronomical Twilight 6:17 AM CDT 9:15 PM CDT
Moon 9:38 AM CDT (3/15) No Moon Set
Length of Visible Light 12h 50m
Length of Day
11h 56m
Waxing Crescent, 15% of the Moon is Illuminated
Mar 15
Waxing Crescent
Mar 19
First Quarter
Mar 27
Full
Apr 2
Last Quarter
Apr 10
New

Hourly Weather History & Observations

Time (CDT) Temp. Windchill Dew Point Humidity Pressure Visibility Wind Dir Wind Speed Gust Speed Precip Events Conditions
12:15 AM 50.5 °F - 37.6 °F 61% 30.04 in 10.0 mi South 6.9 mph - N/A   Clear
12:35 AM 49.1 °F - 37.6 °F 64% 30.04 in 10.0 mi South 8.1 mph - N/A   Clear
12:55 AM 49.3 °F - 37.4 °F 64% 30.03 in 10.0 mi South 8.1 mph - N/A   Clear
1:15 AM 48.6 °F - 37.0 °F 64% 30.02 in 10.0 mi South 8.1 mph - N/A   Clear
1:35 AM 50.0 °F - 36.9 °F 61% 30.01 in 10.0 mi South 8.1 mph - N/A   Clear
1:55 AM 48.9 °F - 37.0 °F 64% 30.00 in 10.0 mi South 8.1 mph - N/A   Clear
2:15 AM 47.3 °F - 36.7 °F 67% 29.99 in 10.0 mi South 9.2 mph - N/A   Clear
2:35 AM 48.7 °F - 36.5 °F 63% 29.99 in 10.0 mi South 9.2 mph - N/A   Clear
2:55 AM 46.9 °F - 36.0 °F 66% 29.98 in 10.0 mi South 10.4 mph - N/A   Clear
3:15 AM 45.1 °F 40.8 °F 35.4 °F 69% 29.97 in 10.0 mi SSW 8.1 mph - N/A   Clear
3:35 AM 45.5 °F 41.3 °F 35.4 °F 68% 29.96 in 10.0 mi SSW 8.1 mph - N/A   Clear
3:55 AM 47.8 °F - 35.8 °F 63% 29.94 in 10.0 mi SW 10.4 mph - N/A   Clear
4:15 AM 48.4 °F - 35.6 °F 61% 29.93 in 10.0 mi SSW 12.7 mph - N/A   Clear
4:35 AM 49.1 °F - 35.6 °F 60% 29.92 in 10.0 mi SSW 11.5 mph - N/A   Clear
4:55 AM 48.0 °F - 35.1 °F 61% 29.90 in 10.0 mi SW 11.5 mph - N/A   Clear
5:15 AM 48.2 °F - 35.1 °F 60% 29.88 in 10.0 mi SW 10.4 mph - N/A   Clear
5:35 AM 48.4 °F - 34.7 °F 59% 29.89 in 10.0 mi SW 9.2 mph - N/A   Clear
5:55 AM 47.8 °F - 34.3 °F 60% 29.88 in 10.0 mi SW 8.1 mph - N/A   Clear
6:15 AM 46.0 °F 41.9 °F 33.6 °F 62% 29.88 in 10.0 mi SW 8.1 mph - N/A   Clear
6:35 AM 45.7 °F 42.7 °F 32.9 °F 61% 29.88 in 10.0 mi WSW 5.8 mph - N/A   Clear
6:55 AM 44.4 °F 40.0 °F 32.4 °F 63% 29.88 in 10.0 mi WSW 8.1 mph - N/A   Clear
7:15 AM 44.6 °F 40.2 °F 32.4 °F 62% 29.87 in 10.0 mi WSW 8.1 mph - N/A   Clear
7:35 AM 43.2 °F 39.7 °F 32.0 °F 65% 29.87 in 10.0 mi WSW 5.8 mph - N/A   Clear
7:55 AM 41.9 °F 39.0 °F 32.0 °F 68% 29.86 in 10.0 mi WSW 4.6 mph - N/A   Clear
8:15 AM 43.0 °F 39.5 °F 32.0 °F 65% 29.86 in 10.0 mi WSW 5.8 mph - N/A   Clear
8:35 AM 42.6 °F 38.4 °F 32.5 °F 68% 29.86 in 10.0 mi West 6.9 mph - N/A   Clear
8:55 AM 45.7 °F 40.6 °F 32.9 °F 61% 29.85 in 10.0 mi WSW 10.4 mph - N/A   Clear
9:15 AM 49.6 °F - 33.3 °F 53% 29.85 in 10.0 mi West 10.4 mph - N/A   Clear
9:35 AM 51.1 °F - 34.0 °F 52% 29.85 in 10.0 mi West 12.7 mph - N/A   Clear
10:55 AM 57.2 °F - 34.0 °F 42% 29.84 in 10.0 mi West 10.4 mph - N/A   Clear
11:15 AM 59.9 °F - 33.8 °F 38% 29.83 in 10.0 mi WNW 8.1 mph - N/A   Clear
11:35 AM 63.0 °F - 33.8 °F 34% 29.82 in 10.0 mi WNW 8.1 mph - N/A   Clear
11:55 AM 65.7 °F - 34.7 °F 32% 29.82 in 10.0 mi West 8.1 mph - N/A   Clear
12:15 PM 68.0 °F - 34.2 °F 29% 29.81 in 10.0 mi West 8.1 mph - N/A   Clear
12:35 PM 69.4 °F - 34.0 °F 27% 29.81 in 10.0 mi WSW 6.9 mph - N/A   Clear
12:55 PM 70.9 °F - 33.1 °F 25% 29.79 in 10.0 mi WSW 5.8 mph - N/A   Clear
1:15 PM 72.3 °F - 33.1 °F 24% 29.79 in 10.0 mi WSW 6.9 mph - N/A   Clear
1:35 PM 73.4 °F - 33.1 °F 23% 29.78 in 10.0 mi WSW 10.4 mph - N/A   Clear
1:55 PM 74.1 °F - 32.2 °F 21% 29.77 in 10.0 mi WSW 8.1 mph - N/A   Clear
2:15 PM 74.5 °F - 31.5 °F 21% 29.76 in 10.0 mi West 12.7 mph - N/A   Clear
2:35 PM 73.8 °F - 31.5 °F 21% 29.75 in 10.0 mi West 9.2 mph - N/A   Clear
2:55 PM 74.3 °F - 31.1 °F 20% 29.74 in 10.0 mi West 10.4 mph - N/A   Clear
3:15 PM 78.1 °F - 29.3 °F 17% 29.73 in 10.0 mi West 13.8 mph 18.4 mph N/A   Clear
3:35 PM 77.7 °F - 28.8 °F 17% 29.72 in 10.0 mi West 13.8 mph 18.4 mph N/A   Clear
3:55 PM 78.8 °F - 28.4 °F 16% 29.71 in 10.0 mi West 15.0 mph 20.7 mph N/A   Clear
4:15 PM 79.0 °F - 26.8 °F 15% 29.70 in 10.0 mi WNW 15.0 mph 19.6 mph N/A   Clear
4:35 PM 79.0 °F - 24.6 °F 13% 29.71 in 10.0 mi WNW 17.3 mph 20.7 mph N/A   Clear
4:55 PM 78.4 °F - 24.4 °F 14% 29.71 in 10.0 mi NW 13.8 mph - N/A   Clear
5:15 PM 78.1 °F - 24.8 °F 14% 29.70 in 10.0 mi West 12.7 mph 19.6 mph N/A   Clear
5:35 PM 79.7 °F - 23.9 °F 13% 29.70 in 10.0 mi WNW 11.5 mph 19.6 mph N/A   Clear
6:15 PM 77.2 °F - 25.2 °F 15% 29.70 in 10.0 mi NW 11.5 mph - N/A   Clear
6:35 PM 75.9 °F - 26.4 °F 16% 29.70 in 10.0 mi NNW 8.1 mph - N/A   Clear
6:55 PM 74.3 °F - 29.3 °F 19% 29.70 in 10.0 mi NNW 5.8 mph - N/A   Clear
7:15 PM 71.8 °F - 29.3 °F 21% 29.70 in 10.0 mi NNW 6.9 mph - N/A   Clear
7:35 PM 68.2 °F - 30.0 °F 24% 29.71 in 10.0 mi NW 8.1 mph - N/A   Clear
7:55 PM 66.2 °F - 30.9 °F 27% 29.72 in 10.0 mi NNW 9.2 mph - N/A   Clear
8:15 PM 63.3 °F - 31.1 °F 30% 29.73 in 10.0 mi NNW 10.4 mph - N/A   Clear
8:35 PM 62.1 °F - 33.3 °F 34% 29.76 in 10.0 mi NE 18.4 mph - N/A   Clear
8:55 PM 60.1 °F - 41.0 °F 49% 29.78 in 10.0 mi NE 18.4 mph - N/A   Clear
9:15 PM 58.5 °F - 41.0 °F 52% 29.79 in 10.0 mi NE 15.0 mph - N/A   Clear
9:35 PM 57.2 °F - 39.9 °F 52% 29.81 in 10.0 mi NNE 16.1 mph 20.7 mph N/A   Clear
9:55 PM 54.7 °F - 38.5 °F 54% 29.81 in 10.0 mi NE 13.8 mph - N/A   Clear
10:15 PM 52.2 °F - 38.3 °F 59% 29.83 in 10.0 mi NE 11.5 mph - N/A   Clear
10:35 PM 49.6 °F - 37.8 °F 64% 29.84 in 10.0 mi NE 6.9 mph - N/A   Clear
10:55 PM 47.3 °F - 37.0 °F 68% 29.85 in 10.0 mi NNE 9.2 mph - N/A   Clear
11:15 PM 47.5 °F - 36.9 °F 67% 29.85 in 10.0 mi NNE 12.7 mph - N/A   Clear
11:35 PM 46.4 °F 39.8 °F 36.5 °F 68% 29.86 in 10.0 mi NNE 16.1 mph - N/A   Clear
11:55 PM 46.6 °F - 36.5 °F 68% 29.86 in 10.0 mi NNE 18.4 mph - N/A   Clear